Wind_Speed
46 48 49 45 38 35 36 40 42 43 44 47 49 51 52 52 52 47 43 39 39 49 54 52 53 54 51 45 38 35 36 35 31 31 31 30 30 30 31 32 32 33 33 32 34 36 36 35 36 38 37 37 36 35 34 33 33 34 35 36 36 37 38 38 38 37 37 36 36 36 36 36 36 35 34 34 34 35 36 36 37 37 37 36 36 35
47 51 48 41 37 38 40 40 42 43 44 46 47 50 51 51 52 48 45 42 42 51 57 55 56 55 52 48 42 38 38 35 32 31 32 30 30 30 30 30 31 33 33 33 35 34 34 34 35 36 35 35 35 34 34 33 34 35 35 36 37 38 38 38 38 38 37 36 36 36 36 36 35 35 35 35 35 36 36 37 38 38 38 37 36 36
50 52 45 39 40 42 42 41 41 43 44 46 46 48 49 48 49 49 47 44 46 53 56 56 58 56 53 50 45 40 37 36 33 32 30 28 30 31 30 30 30 31 32 33 34 34 33 33 34 35 34 34 35 35 35 34 34 35 36 37 38 39 39 39 38 38 38 37 37 37 36 35 35 35 35 36 36 37 38 38 38 38 38 38 37 37
52 51 43 41 43 43 43 42 42 44 46 47 46 47 49 46 46 49 48 46 48 53 55 57 58 56 53 50 46 41 37 35 34 32 30 27 28 31 30 31 31 31 31 32 33 33 33 33 33 34 35 36 36 36 35 35 36 37 37 38 39 39 40 39 39 38 38 38 38 37 36 35 36 37 37 37 38 39 39 39 38 37 38 39 39 37
52 49 44 43 44 43 44 44 43 44 47 48 46 47 48 46 46 49 50 49 50 52 53 56 57 53 50 48 45 40 36 35 35 34 32 28 29 33 32 30 31 32 33 33 31 32 33 34 34 35 36 37 37 37 37 38 39 39 39 39 39 40 40 40 39 39 39 39 39 38 37 37 38 39 38 38 39 40 39 38 37 37 39 40 39 37
51 46 44 46 46 45 46 46 43 42 46 49 48 47 47 47 48 49 50 51 52 53 51 54 57 51 46 45 42 38 36 37 38 36 34 30 30 34 33 29 30 32 33 32 32 32 33 34 35 36 37 38 39 39 40 40 40 40 40 40 40 40 41 41 41 41 41 41 40 40 39 39 40 40 39 39 40 39 38 37 37 38 39 39 38 37
50 43 43 45 46 46 47 47 42 39 46 52 50 47 46 47 49 50 51 52 54 54 53 55 58 53 46 43 42 40 39 38 38 35 32 30 29 32 35 32 30 31 32 32 33 33 34 35 36 37 37 39 41 42 42 42 42 42 42 42 42 42 42 42 43 43 43 42 42 42 41 41 42 41 39 39 38 37 37 36 37 38 39 39 38 38
47 43 43 43 45 48 49 47 42 41 48 52 50 48 48 48 49 50 52 53 54 55 55 57 59 57 50 45 45 45 43 41 38 34 30 29 29 31 35 34 30 29 30 31 32 33 35 36 37 38 39 41 43 44 44 44 44 44 44 44 44 45 45 45 45 45 45 44 44 44 43 43 43 41 39 38 37 36 36 36 37 38 39 39 39 39
45 45 45 45 47 49 48 46 44 44 48 50 50 51 51 50 50 50 51 53 54 55 56 57 57 57 53 49 51 51 48 44 41 37 31 26 26 29 32 33 31 30 31 32 33 34 36 38 40 40 41 44 45 45 45 45 46 46 47 47 47 47 47 47 48 47 47 46 47 46 45 44 43 40 38 37 37 36 35 35 37 38 40 41 41 41
46 46 47 48 49 48 46 45 46 46 47 48 49 51 52 51 51 52 53 53 55 56 56 57 56 56 53 49 51 53 50 46 43 39 34 29 28 28 30 32 33 34 35 35 35 35 37 39 42 43 44 46 47 48 48 48 49 50 50 51 50 50 49 49 49 49 48 49 49 48 46 44 42 40 38 37 36 35 35 36 37 39 41 43 44 44
45 47 49 49 49 48 47 47 48 48 48 47 48 49 51 52 52 54 56 56 58 58 56 56 54 55 53 48 49 52 51 50 48 45 42 38 33 31 30 31 32 34 35 36 36 36 38 42 44 44 45 48 50 51 51 51 52 53 53 54 53 52 51 50 50 50 50 51 50 48 45 43 41 39 38 37 36 35 35 36 38 40 42 44 46 47
47 49 50 49 49 50 50 51 50 50 49 47 47 48 49 51 53 56 58 58 59 59 56 53 52 53 53 49 50 53 54 54 53 51 50 45 39 36 34 32 30 30 31 33 35 37 40 44 46 46 46 48 51 52 51 52 54 55 55 55 54 53 51 51 51 51 52 52 50 47 44 41 40 39 38 37 36 35 35 37 39 42 44 46 47 48
50 50 50 51 51 52 52 52 52 51 51 49 49 49 49 51 55 58 59 59 60 59 56 54 55 56 54 52 53 54 53 55 56 55 54 50 46 42 41 39 36 31 28 29 32 36 40 43 45 47 48 48 50 52 52 52 53 55 54 54 53 52 52 52 52 52 52 51 48 45 43 41 39 38 37 37 36 37 37 39 41 43 45 47 48 49
53 52 52 54 53 52 53 54 53 53 52 52 52 51 50 53 57 59 59 60 61 60 58 57 60 61 57 54 55 54 53 55 55 56 55 54 53 50 48 45 41 34 30 29 30 32 37 41 43 45 48 49 49 51 53 54 54 55 56 55 54 53 53 53 53 52 51 49 46 44 42 40 38 38 38 38 38 39 41 42 43 45 47 48 50 50
57 54 51 54 54 53 55 56 54 54 53 54 54 53 54 55 57 57 57 59 62 62 61 63 66 65 60 58 58 58 58 57 56 55 55 54 55 55 53 48 45 41 34 30 29 30 34 38 40 43 47 49 50 52 54 55 56 56 56 57 57 56 56 55 54 53 51 48 45 44 43 41 40 40 41 41 40 42 43 44 46 47 48 49 49 50
59 56 52 55 58 55 55 55 55 56 57 57 57 57 59 57 55 55 56 58 61 64 66 69 71 68 65 63 61 60 61 61 59 56 54 53 53 55 54 49 48 49 43 33 29 30 33 36 39 40 43 47 50 52 54 56 58 59 58 59 59 58 58 58 57 55 52 49 47 45 45 45 45 44 44 44 44 44 45 47 48 48 48 48 48 49
62 60 55 57 59 57 56 56 56 58 60 61 62 62 61 58 57 59 62 62 62 66 69 72 74 72 68 66 63 62 61 59 59 58 58 56 55 55 55 51 49 51 50 44 36 33 34 36 38 39 41 45 48 50 52 55 58 60 59 59 59 59 59 58 57 55 52 50 49 48 48 49 50 50 48 48 47 47 47 48 49 49 49 49 49 49
64 65 62 61 61 60 60 60 61 62 64 65 65 63 62 62 64 64 66 65 65 68 71 72 74 73 70 68 67 64 62 61 60 60 62 62 60 59 57 56 55 53 52 52 47 44 42 40 40 42 43 46 48 48 50 53 56 58 58 58 59 59 58 57 56 54 52 50 50 51 52 53 55 54 52 50 51 52 51 50 49 50 50 51 51 50
67 67 68 68 68 68 68 68 69 69 69 68 66 64 64 66 67 66 65 65 65 68 71 72 73 74 73 71 69 66 65 65 65 65 67 67 65 64 62 62 61 56 52 52 53 52 51 48 47 48 49 49 49 50 51 53 55 56 57 57 58 60 58 57 56 54 53 52 53 54 54 55 56 55 53 53 54 54 54 53 51 51 52 52 52 52
65 64 67 70 72 73 73 73 73 72 69 67 64 63 64 64 66 67 68 67 66 68 70 72 75 76 75 71 69 69 68 69 69 69 70 69 67 64 63 64 63 58 54 53 54 55 55 55 54 53 52 51 51 52 53 54 55 56 57 56 57 59 58 59 59 57 56 55 56 57 56 56 55 55 54 54 55 56 56 55 54 52 53 53 54 54
59 58 61 63 66 71 73 72 70 66 61 59 57 57 58 59 62 66 70 70 71 74 75 76 79 79 75 71 69 69 70 71 71 71 70 69 68 64 61 63 63 60 58 57 56 57 59 61 60 55 52 53 54 54 54 55 55 55 56 56 57 59 60 61 63 62 59 57 57 58 58 56 55 54 53 53 54 56 57 56 55 55 55 55 56 57
63 62 62 60 59 60 59 56 55 55 55 56 56 55 55 54 55 61 67 69 70 75 77 78 82 80 73 70 71 70 69 70 69 69 69 68 67 63 60 62 62 61 61 61 60 61 64 64 59 54 54 57 57 54 53 55 56 56 58 58 59 60 61 64 66 65 62 59 57 57 57 57 55 55 54 54 55 57 57 57 57 57 58 58 59 59
72 71 71 69 64 58 50 46 48 53 56 58 59 58 56 55 53 57 63 62 64 70 74 78 84 82 71 65 66 65 65 66 67 67 68 67 66 63 62 64 66 65 66 66 66 67 69 67 60 54 54 59 58 54 54 55 56 58 60 61 61 60 61 65 68 67 63 60 58 56 56 57 57 56 56 56 57 57 58 58 59 60 61 61 61 60
73 73 74 74 73 70 64 61 59 58 58 61 62 60 59 60 59 61 63 62 62 66 67 69 77 77 68 60 60 59 60 64 66 67 68 68 66 64 63 66 68 70 70 70 71 72 71 71 65 55 51 54 54 52 54 57 59 60 61 62 62 61 61 64 67 67 63 60 58 57 58 58 58 58 58 58 58 58 59 60 61 62 63 63 62 61
77 78 78 77 79 80 80 79 77 72 71 73 74 72 71 72 70 70 69 69 70 71 68 70 75 72 61 56 58 61 61 62 63 65 68 68 67 66 67 68 70 70 71 72 72 71 69 68 64 57 51 51 52 53 55 58 60 61 60 60 61 61 62 63 65 65 62 60 59 59 59 58 59 60 60 60 60 60 61 63 63 64 64 64 63 62
80 80 78 77 78 80 84 86 85 83 83 85 85 83 82 81 77 75 74 75 77 78 77 80 82 75 63 56 54 52 55 59 61 63 64 64 65 67 68 70 70 70 70 69 66 64 62 59 58 58 55 52 51 55 59 61 62 62 61 60 61 62 64 65 65 63 61 60 60 60 60 61 62 63 62 61 60 61 63 64 64 64 65 65 65 65
79 80 80 80 81 84 87 89 88 86 86 88 88 87 86 84 81 78 77 78 78 80 83 85 85 84 78 70 60 53 52 55 57 58 57 55 58 61 64 67 69 68 65 62 59 56 55 54 54 55 54 51 51 54 59 63 66 67 66 65 64 65 66 66 66 65 63 63 63 64 64 65 65 64 63 62 62 62 63 64 64 65 65 66 67 66
78 79 80 82 85 86 87 89 89 89 89 89 89 88 85 82 79 78 80 82 81 83 87 85 81 82 83 81 78 74 71 67 64 64 65 63 62 61 59 60 62 62 60 60 59 57 56 57 57 56 55 52 51 55 60 66 69 70 71 70 68 67 66 66 66 66 66 66 67 67 66 65 64 63 64 64 64 64 64 64 64 64 65 66 66 66
80 80 79 81 83 85 86 88 89 90 91 90 88 86 82 77 74 75 79 80 80 82 84 80 77 83 88 87 85 85 85 83 82 83 84 83 78 71 66 66 67 69 69 68 65 64 66 67 64 63 62 58 55 54 56 60 63 66 68 69 68 67 65 64 65 65 66 66 66 65 64 64 63 64 65 65 65 64 64 64 64 64 65 65 65 65
80 80 79 78 79 79 80 81 83 84 87 87 86 86 82 76 74 77 79 79 79 83 85 83 84 87 86 81 78 80 81 81 80 82 86 87 84 79 77 80 81 80 80 79 74 69 68 69 70 70 71 70 66 61 58 57 58 60 62 61 60 61 62 63 63 62 62 63 63 63 63 63 63 64 65 64 64 63 63 63 63 64 65 65 65 65
80 81 81 79 78 78 76 75 77 77 78 79 80 80 78 77 78 81 81 81 81 84 85 83 82 82 77 74 73 72 70 68 68 71 76 79 78 74 76 80 81 80 83 86 85 79 74 73 75 76 78 78 76 73 70 69 67 66 64 61 59 59 60 61 61 60 60 60 60 62 63 63 63 64 63 63 62 62 62 62 63 64 65 65 66 66
75 77 77 77 80 81 77 76 76 73 71 72 72 70 71 73 76 79 79 79 80 82 81 78 77 78 76 71 66 62 59 59 60 62 65 67 67 67 70 74 77 79 83 85 87 88 85 82 82 84 86 87 87 85 83 82 79 77 75 73 71 69 65 61 58 58 59 60 62 63 63 63 63 62 62 62 62 62 62 63 63 64 65 66 67 68
67 68 68 72 77 78 74 73 73 71 73 77 75 72 72 74 76 77 78 78 76 75 75 75 75 75 72 66 62 62 62 61 60 59 61 62 63 65 69 73 75 78 82 84 86 87 86 83 82 83 87 90 90 89 87 86 85 83 82 81 79 77 72 68 65 64 63 63 64 64 63 63 63 63 64 64 64 64 64 65 65 67 69 70 71 70
61 62 64 68 74 77 75 72 72 73 80 85 81 75 75 74 74 75 75 74 72 70 71 73 74 73 70 66 65 66 67 62 56 56 59 60 61 63 67 70 73 75 78 80 84 86 86 84 79 77 79 83 85 84 82 80 81 81 80 79 79 78 74 71 70 71 69 69 68 66 65 65 66 66 66 66 66 66 66 67 68 70 71 72 71 69
70 70 71 75 80 84 81 77 77 80 83 83 80 75 74 73 70 71 70 69 70 75 78 80 81 80 77 75 73 73 71 64 56 55 60 62 61 61 62 63 66 68 70 72 75 78 81 82 78 73 72 74 77 78 77 76 76 76 75 73 73 74 71 68 68 71 73 73 72 70 68 68 68 68 67 67 68 68 68 69 70 71 70 70 69 67
82 83 85 86 87 87 85 82 84 85 82 79 76 74 74 72 67 64 64 67 74 81 81 79 80 80 78 76 75 73 70 66 62 65 68 67 66 64 62 59 59 61 62 62 63 66 69 72 72 70 68 68 70 71 72 72 71 71 69 68 67 67 65 64 66 71 74 74 72 71 71 70 71 70 70 70 71 71 72 72 71 70 70 69 68 66
82 84 85 86 86 86 85 85 86 86 83 79 77 75 77 77 74 72 73 78 83 81 74 72 75 76 75 76 75 72 68 64 62 63 63 61 61 60 58 57 56 58 59 59 59 60 61 63 63 64 65 66 66 67 67 67 67 66 66 66 66 64 64 64 66 71 75 76 75 73 73 73 73 73 73 73 74 74 74 73 72 71 70 68 66 64
79 79 79 80 80 80 81 84 86 85 85 84 81 79 78 77 75 74 74 75 77 74 71 72 73 70 67 67 68 67 65 63 61 60 60 59 59 59 59 60 60 61 61 62 62 62 62 61 61 62 63 64 64 64 64 64 65 65 66 67 67 66 66 67 68 71 74 76 77 77 77 77 76 76 76 76 76 76 75 73 72 71 69 67 64 62
79 79 77 77 76 74 74 76 79 80 82 82 79 75 72 69 65 62 61 62 64 64 65 67 68 66 65 66 68 68 67 67 65 62 61 62 62 63 65 67 67 66 64 63 63 63 61 60 59 61 63 64 63 62 62 63 64 64 65 66 66 65 66 66 67 70 72 73 75 76 76 77 76 76 76 76 76 76 75 74 74 72 70 68 64 60
80 80 80 80 80 77 75 76 77 78 80 81 78 75 73 72 71 69 71 73 73 70 70 71 72 72 72 72 73 73 72 73 71 67 66 67 67 68 69 69 68 67 65 63 63 62 60 59 59 61 63 63 63 62 63 63 64 63 63 64 64 64 65 66 68 69 69 70 72 73 74 75 75 77 77 77 76 76 77 77 76 73 69 65 60 56
81 80 80 80 81 81 81 82 82 81 82 83 83 82 81 80 78 78 80 83 83 81 81 80 78 76 76 76 76 75 75 75 75 72 71 71 73 75 74 71 69 69 67 65 64 63 61 59 59 62 63 63 63 64 64 65 65 65 64 64 64 64 65 68 70 69 69 70 70 71 72 73 75 77 77 78 78 78 78 75 71 67 62 58 55 54
80 80 79 79 79 80 81 82 83 83 84 84 84 84 85 84 84 85 87 87 86 86 86 85 85 84 81 79 77 76 76 77 79 79 78 79 82 81 77 73 73 73 73 71 70 69 66 62 61 62 65 66 66 66 66 66 66 65 65 65 66 66 67 69 70 69 68 68 70 71 73 75 77 79 80 80 80 79 76 72 68 64 61 59 57 55
74 77 78 78 77 78 78 79 81 82 83 83 82 83 83 82 84 87 89 89 89 90 90 90 91 88 81 76 74 76 79 81 84 86 86 86 85 83 79 77 76 75 75 75 75 74 71 68 64 63 65 67 68 69 69 68 68 66 65 66 67 68 69 70 70 69 68 69 72 75 76 76 74 72 72 73 75 76 74 71 68 65 63 61 59 57
69 71 73 74 73 73 74 76 76 76 75 76 78 80 81 82 84 86 88 88 89 90 90 91 92 91 90 88 88 90 93 93 94 94 94 92 90 87 85 84 82 79 78 78 79 78 75 72 68 65 65 66 67 68 69 70 70 69 68 67 67 68 69 70 71 70 70 70 72 72 73 73 70 65 63 63 66 70 70 67 65 62 61 60 59 58
65 65 68 71 71 71 72 75 75 74 71 71 72 75 77 80 82 84 86 88 89 91 93 94 95 95 96 98 99 100 99 98 97 96 94 92 89 85 83 84 84 80 75 73 75 76 76 74 70 67 67 67 68 69 70 70 70 69 69 68 68 68 69 70 70 70 69 68 68 67 68 70 71 70 69 69 70 72 70 66 64 63 60 58 58 59
63 63 65 68 70 71 73 73 73 73 73 71 71 73 74 76 77 78 81 83 84 86 88 90 92 94 95 96 97 96 94 91 89 87 85 83 81 80 80 84 83 77 71 70 72 72 73 73 71 69 68 69 70 72 73 73 73 71 70 70 70 70 71 72 72 73 72 71 70 70 70 71 72 73 73 73 73 73 70 67 67 65 61 59 59 60
61 61 62 64 66 68 69 69 68 70 71 71 71 73 74 75 77 79 80 81 81 82 83 84 85 86 87 89 90 90 89 87 85 84 83 83 84 85 85 86 85 82 80 82 83 81 78 77 74 72 71 71 72 74 75 75 75 73 71 72 73 74 75 76 76 78 78 77 74 73 73 74 74 75 75 74 74 74 73 73 73 70 65 62 62 62
58 59 60 61 62 63 64 64 64 65 66 66 68 70 72 74 76 78 81 83 85 86 87 88 88 88 89 90 91 92 92 91 91 90 88 86 85 84 82 81 82 83 85 88 92 94 91 86 82 79 77 76 77 77 77 76 76 75 73 73 74 76 78 80 80 81 81 80 79 77 77 77 76 76 76 77 78 79 79 79 77 73 70 66 65 64
56 58 59 58 58 60 60 58 57 58 60 60 61 63 66 70 72 73 75 78 81 85 87 89 92 94 95 96 97 97 97 96 95 96 96 94 92 89 86 83 81 79 80 83 89 95 97 93 88 86 85 84 84 84 83 80 78 77 75 74 75 78 80 82 82 82 82 82 82 81 81 81 81 80 80 80 80 81 81 79 76 75 73 70 69 69
54 56 56 54 56 60 59 56 55 58 60 60 59 61 64 66 67 69 71 73 75 78 81 84 87 89 92 96 99 101 102 101 100 100 100 100 100 100 100 99 96 93 92 92 94 96 96 94 93 92 89 88 89 90 89 87 83 80 79 78 78 79 81 82 81 80 81 81 82 82 82 82 83 83 83 83 82 80 80 78 77 77 76 75 74 75
50 50 51 54 58 61 60 59 59 62 65 64 61 61 62 63 64 64 66 68 70 72 75 77 80 82 84 87 90 94 98 100 102 104 104 105 105 105 105 105 105 105 105 104 102 100 98 97 97 95 91 90 91 91 89 88 86 84 82 81 81 82 83 82 80 80 80 81 81 81 81 82 83 83 84 84 83 81 80 79 78 78 78 78 78 79
Wind_Direction
274 273 273 278 288 292 286 280 279 280 280 279 278 278 278 280 281 285 289 288 287 285 283 283 284 284 284 285 285 282 279 281 287 288 284 283 282 279 277 277 277 276 274 271 268 268 270 270 270 270 270 272 273 274 274 274 273 273 273 275 276 278 279 281 282 281 280 279 279 278 279 281 283 283 283 283 283 284 287 290 292 291 288 285 284 283
273 272 275 284 288 283 279 279 280 281 281 281 281 281 280 281 282 284 285 286 285 282 282 284 284 284 285 286 284 282 281 283 286 283 281 283 285 284 282 280 276 273 272 271 271 271 270 270 270 271 272 273 273 273 273 272 272 272 274 276 278 279 280 280 279 278 278 278 278 278 279 280 281 281 282 282 283 285 287 290 291 289 286 284 282 281
272 272 278 284 281 277 278 279 280 280 281 281 282 283 282 284 285 283 283 284 281 279 281 283 284 284 284 284 283 283 283 285 284 280 279 281 284 285 283 279 276 273 272 271 271 271 270 270 271 272 273 273 271 271 271 272 271 273 276 278 279 280 280 279 277 276 276 276 277 277 278 278 279 280 282 283 284 286 288 290 290 288 285 283 281 279
271 273 278 278 275 276 277 277 278 280 280 280 282 282 283 287 288 284 283 282 279 278 280 282 283 283 283 283 284 286 286 285 283 281 278 277 280 282 280 278 277 275 273 271 271 271 271 270 270 271 271 270 271 272 273 273 273 275 277 279 280 280 278 276 275 274 274 275 276 276 276 277 279 281 283 284 286 287 288 290 289 287 284 281 280 277
269 273 276 275 274 275 275 276 278 278 277 277 279 281 283 287 286 284 285 285 281 279 280 282 283 281 282 284 285 287 287 285 283 280 277 276 278 280 277 275 275 274 273 273 272 272 272 271 271 271 271 271 272 272 272 273 274 276 278 280 280 279 276 274 273 273 274 275 275 275 277 279 281 283 284 285 286 287 288 289 288 285 282 280 279 277
266 270 274 274 273 274 273 274 274 274 275 276 276 279 281 282 282 282 284 284 282 281 282 283 282 281 283 284 285 289 288 284 281 278 278 278 277 278 277 273 272 272 272 273 273 272 272 272 271 270 271 272 272 271 271 272 274 276 278 279 279 278 275 273 272 273 274 275 275 276 278 281 283 285 285 285 285 286 288 288 286 283 281 280 280 278
266 269 271 271 272 272 271 270 271 274 275 274 275 277 277 277 277 279 280 280 281 282 283 282 281 282 284 286 289 292 288 282 279 278 280 279 275 274 274 273 271 270 270 270 271 272 272 272 271 270 270 269 270 271 271 273 275 276 277 278 278 278 276 274 273 273 274 275 275 277 279 282 284 285 284 284 284 286 287 286 284 282 280 279 280 278
269 270 268 268 269 268 269 271 274 274 273 274 277 278 276 274 274 275 277 278 278 279 280 279 279 283 287 291 294 293 287 283 282 283 283 281 275 270 270 272 272 270 269 268 268 269 270 271 272 272 271 270 270 271 272 273 274 275 276 278 278 278 276 275 273 273 274 275 276 278 280 282 283 283 282 283 284 285 285 283 281 279 278 277 277 277
269 269 268 269 268 268 271 274 274 273 272 274 276 276 275 275 275 274 274 274 275 275 275 275 278 283 289 294 294 290 286 286 287 287 286 281 275 270 269 272 272 269 268 268 268 268 268 270 271 271 271 272 272 272 272 273 274 274 276 277 278 277 275 274 273 273 274 276 277 278 280 281 280 280 281 282 283 283 282 280 278 276 275 275 275 275
267 268 268 268 269 271 273 274 273 273 273 273 274 274 275 276 275 275 273 272 272 271 272 275 279 285 289 291 289 286 288 290 290 289 289 285 280 274 271 271 271 269 268 269 269 269 269 269 269 269 270 271 272 272 272 273 274 275 275 276 276 275 274 272 272 273 274 275 277 278 279 279 278 278 279 281 280 280 278 276 275 273 273 273 274 275
266 267 267 268 271 273 273 272 272 272 272 273 273 274 275 275 275 274 272 272 271 270 272 276 281 286 287 288 286 287 291 292 292 293 293 290 288 283 274 268 267 268 268 269 270 270 269 269 269 269 268 270 271 271 272 273 274 274 275 275 275 274 273 272 272 273 274 275 276 278 278 278 277 278 279 279 278 276 274 273 271 270 271 272 274 275
264 265 266 268 270 271 271 271 272 272 273 273 273 273 272 272 272 271 271 271 271 271 274 278 281 281 280 281 284 287 290 291 293 294 293 292 291 287 279 270 266 267 269 270 270 269 267 268 270 272 271 270 271 273 273 272 273 273 273 273 273 273 272 271 271 271 273 275 277 278 278 277 276 277 278 277 275 273 272 270 268 268 269 271 274 276
263 265 267 268 269 270 271 271 271 271 272 272 272 271 270 270 270 269 270 270 271 274 277 280 280 276 275 277 280 283 287 290 292 292 292 294 292 287 282 277 274 274 272 268 265 265 265 266 268 271 273 272 273 274 275 274 274 274 274 273 272 272 271 270 271 272 274 276 277 278 278 277 277 278 277 274 271 271 270 269 268 268 269 272 274 276
263 264 267 270 271 272 271 270 269 269 270 269 269 270 269 269 269 269 270 272 274 276 278 278 276 274 275 279 281 283 284 285 286 288 291 293 292 290 286 283 283 281 275 269 263 260 262 264 266 268 270 272 273 274 276 277 277 277 278 277 275 274 273 273 273 274 276 277 278 278 278 278 279 279 277 272 269 269 269 268 268 268 269 271 273 275
263 263 266 271 272 272 271 271 270 269 269 268 269 268 267 268 269 271 273 274 275 275 274 273 272 274 278 280 283 285 284 283 283 284 287 290 291 290 289 289 291 288 282 273 265 261 262 265 267 268 269 272 273 274 276 277 277 277 277 278 279 278 278 277 277 278 278 278 276 276 277 279 280 280 277 272 268 268 269 269 268 267 268 270 271 273
265 264 265 269 269 270 271 271 270 270 269 269 269 268 268 270 272 273 273 273 273 273 273 273 273 275 278 279 280 282 283 285 286 287 287 288 287 287 287 290 292 292 290 278 264 262 266 268 270 272 273 273 273 273 274 275 276 275 275 275 276 277 278 278 278 278 278 276 274 274 276 280 283 282 279 274 270 269 270 270 269 268 268 269 270 272
270 267 265 266 267 268 269 269 270 271 271 270 269 269 272 274 273 273 273 271 271 270 271 272 274 276 277 278 278 278 279 282 284 286 287 286 285 285 285 287 287 289 290 284 273 267 267 268 270 274 278 278 276 273 271 270 271 271 272 272 273 274 275 275 276 275 274 272 271 273 276 282 285 284 280 276 273 272 273 272 270 269 269 270 271 273
274 272 269 267 267 267 268 269 270 270 271 271 271 273 276 275 273 273 274 273 271 270 269 269 271 273 274 275 277 279 280 281 281 282 282 283 284 284 284 284 283 283 285 284 281 277 273 272 275 278 280 278 274 271 269 267 266 267 268 270 270 271 271 271 272 272 271 270 271 274 278 283 284 283 281 279 277 276 276 273 270 270 270 271 272 275
278 280 277 273 272 272 271 272 272 272 272 273 275 275 274 273 273 273 273 273 272 271 270 267 266 267 269 272 276 278 279 280 280 280 281 282 283 283 283 283 282 282 282 282 282 281 278 277 279 282 282 278 272 268 266 265 265 265 267 268 269 269 269 269 268 268 269 270 272 276 279 282 281 280 280 279 278 277 277 275 272 270 271 272 273 275
281 283 281 279 278 278 277 276 276 276 277 277 276 274 271 271 270 269 269 269 270 270 270 268 265 264 265 269 272 274 275 276 276 276 277 280 282 282 282 282 283 284 283 280 280 281 281 280 280 280 279 276 271 268 266 265 265 265 265 266 267 267 268 268 267 266 267 270 273 275 278 279 278 276 276 277 277 276 276 274 272 271 271 272 273 274
278 279 280 281 280 280 281 281 279 278 276 274 271 270 269 269 269 269 268 268 269 269 269 270 268 265 266 268 269 270 271 272 273 274 275 277 278 279 280 281 282 283 280 276 275 277 280 282 283 282 279 275 271 269 268 267 266 263 263 263 263 263 264 265 265 264 265 269 273 275 277 276 274 273 274 275 275 275 275 274 273 272 272 273 273 274
275 276 278 280 280 279 279 277 272 269 266 265 264 263 264 264 266 270 270 268 268 269 269 269 269 267 267 269 269 270 271 271 272 273 274 275 276 276 277 278 279 278 277 276 276 277 280 282 283 283 280 277 273 270 267 266 265 263 261 260 260 261 262 262 263 263 264 268 272 274 275 274 272 272 273 273 274 274 274 274 273 273 273 273 273 274
276 277 277 278 278 276 272 265 261 260 260 261 261 261 263 264 266 270 272 273 273 273 272 270 269 269 269 269 270 273 274 272 271 271 271 272 273 273 274 275 275 274 273 274 276 277 279 280 281 279 277 277 277 272 266 263 263 262 261 261 261 262 262 262 263 263 265 269 272 273 272 271 270 269 270 271 272 273 273 273 273 273 273 273 274 275
275 275 276 276 275 273 269 266 265 263 262 263 265 267 270 271 273 275 276 277 277 275 274 272 271 270 269 268 268 268 268 269 270 270 270 270 270 270 270 271 271 272 273 274 276 277 278 278 279 278 274 274 274 270 265 262 260 260 261 263 265 265 265 264 265 266 267 269 271 271 270 270 270 270 269 269 270 271 272 272 272 272 273 273 274 275
273 273 273 274 273 272 269 267 267 266 267 269 271 273 274 275 277 277 277 276 275 273 273 273 272 271 271 269 265 262 262 263 265 267 268 269 268 267 267 268 269 272 275 276 277 278 279 279 280 279 275 272 269 264 262 261 259 259 261 263 266 267 268 267 268 269 269 269 269 269 270 271 271 271 270 269 269 269 270 271 271 272 273 274 274 274
272 272 272 272 271 271 271 270 270 270 271 272 273 274 274 276 277 278 278 276 274 274 274 273 274 276 277 274 269 265 263 261 260 260 263 268 269 268 268 269 270 271 274 275 276 278 279 279 280 280 279 277 271 265 264 263 262 262 262 264 266 268 269 269 269 270 270 269 268 268 269 270 271 270 268 268 268 268 268 269 270 272 273 274 274 274
271 270 269 269 270 271 272 273 273 274 274 274 274 275 276 277 277 277 276 274 273 275 275 274 276 278 277 274 272 271 270 266 261 258 261 269 272 270 269 270 270 270 271 273 273 275 278 280 279 279 280 280 274 268 266 267 267 266 266 266 268 268 268 268 269 270 270 269 268 268 268 268 268 266 265 266 266 267 268 269 270 271 272 272 272 272
270 269 268 268 269 270 272 272 273 274 276 276 277 277 277 278 278 275 272 272 274 275 275 276 278 277 277 277 276 275 275 273 269 265 265 268 271 270 269 271 273 272 271 271 271 271 274 277 277 276 277 277 274 270 269 269 269 269 268 268 269 269 269 269 269 270 270 269 269 270 270 268 266 264 263 264 265 266 268 269 269 269 269 269 270 270
270 270 269 269 269 270 271 271 271 272 273 275 277 277 278 278 275 272 272 273 273 273 274 276 276 275 278 281 280 280 280 279 276 274 273 272 271 269 268 270 273 273 271 270 270 269 270 273 274 273 273 274 273 272 272 273 272 271 270 270 271 271 271 271 271 270 270 270 271 271 269 267 265 264 263 263 265 266 267 267 267 267 268 268 269 269
270 271 271 272 272 271 271 271 271 271 271 272 274 275 277 275 271 270 271 272 271 270 272 274 275 276 279 281 282 284 284 282 280 279 278 278 276 272 269 269 270 270 268 267 267 266 266 269 271 272 271 271 272 272 272 275 276 276 275 275 275 275 274 272 271 271 270 269 269 268 267 266 265 265 264 264 265 265 265 265 266 266 267 268 269 270
270 271 272 273 272 271 271 271 272 272 272 273 273 274 275 274 272 272 273 274 274 274 276 278 277 278 280 282 284 284 282 281 279 279 279 280 279 274 269 267 268 268 267 266 266 266 266 267 270 272 272 272 273 273 273 274 275 276 277 277 278 280 279 275 272 270 268 268 267 266 266 265 264 264 264 264 263 263 264 265 265 267 268 269 271 272
272 273 273 272 272 272 272 272 272 273 274 273 272 272 272 273 274 275 275 276 277 278 280 279 278 280 284 287 286 282 279 278 277 276 276 275 273 269 267 266 267 269 270 270 269 269 269 269 269 270 271 272 272 273 273 274 274 275 276 276 277 278 279 277 274 270 268 267 266 266 266 265 263 263 262 262 262 262 263 265 267 269 271 272 273 273
270 269 269 269 271 273 275 275 275 276 276 274 271 271 273 274 275 276 276 276 276 278 280 280 282 284 288 287 281 277 279 280 278 275 272 269 267 267 268 269 268 269 271 272 272 273 274 273 271 270 270 271 273 274 275 274 275 275 276 276 276 276 276 275 274 271 269 268 267 266 265 263 262 261 260 260 261 262 264 267 269 271 272 272 271 271
260 259 260 264 269 274 277 278 277 276 276 276 276 276 277 276 276 276 276 276 277 277 278 281 283 283 281 277 274 274 278 279 278 276 273 272 272 272 272 273 272 271 271 271 273 275 276 277 276 274 273 273 274 276 276 276 276 276 276 276 276 277 277 276 274 271 269 268 266 264 262 261 260 260 259 260 261 263 266 268 270 271 271 271 270 270
259 259 260 263 268 272 274 273 273 272 274 276 277 277 276 275 275 275 275 276 278 278 278 280 279 278 277 276 274 275 276 275 273 273 274 276 276 275 273 273 273 273 272 271 270 271 273 274 275 275 273 272 273 275 276 275 275 275 275 275 275 275 276 275 272 270 268 266 263 261 260 260 260 260 261 262 263 265 268 270 271 271 271 271 271 271
263 263 264 265 267 269 270 268 268 269 271 273 274 274 272 270 270 271 274 277 279 280 280 278 276 276 276 275 274 274 273 271 270 271 273 274 273 272 271 271 271 272 272 271 270 269 269 270 272 274 274 273 272 272 273 273 274 273 273 272 272 273 273 272 269 267 264 262 261 260 260 260 261 262 263 264 265 267 270 271 272 272 271 271 271 271
266 266 266 266 266 267 267 266 266 267 268 268 268 268 267 266 267 269 273 275 276 276 275 274 274 275 274 271 270 269 268 268 268 269 269 268 267 268 268 270 272 274 273 272 271 270 270 270 271 271 271 271 270 269 269 270 272 272 270 268 268 268 268 267 266 264 262 261 260 260 261 262 263 264 265 266 267 269 271 272 273 272 271 270 269 269
266 266 267 267 267 266 266 266 266 267 267 266 266 266 267 268 269 270 271 273 272 271 270 270 271 271 269 267 267 267 267 267 267 266 265 266 267 268 269 272 274 275 274 273 271 270 270 271 269 268 267 267 267 267 267 268 269 269 268 266 265 265 264 264 264 263 262 262 262 262 262 264 264 265 266 267 268 270 271 271 271 270 269 268 267 266
264 265 265 266 266 265 265 265 265 265 266 266 266 266 267 268 268 266 267 269 269 269 268 267 267 268 269 270 271 271 271 270 267 264 263 265 269 271 273 275 275 274 273 272 270 269 268 267 265 263 264 265 265 265 265 265 266 266 264 264 264 264 265 264 263 263 263 262 262 262 263 263 264 265 267 268 269 270 270 270 269 269 267 266 264 264
265 265 264 264 264 264 263 263 263 263 263 264 264 263 264 264 264 262 263 263 263 264 265 266 269 272 274 276 276 275 273 270 267 264 263 265 269 273 275 275 274 273 271 269 269 268 266 264 261 260 260 261 262 263 263 263 264 263 262 262 264 265 266 266 265 264 262 261 261 260 260 262 263 265 267 267 268 268 268 267 266 265 264 263 264 265
268 267 266 265 265 264 264 264 263 262 262 262 262 262 261 262 262 262 262 262 261 261 262 263 266 268 270 273 275 274 272 271 269 266 265 266 270 273 274 272 271 272 270 267 267 267 265 262 260 258 258 258 260 262 262 263 263 263 262 264 266 267 267 268 268 266 265 265 264 262 260 260 261 263 264 265 265 265 265 264 264 263 263 264 266 268
271 270 268 267 266 265 264 264 264 264 263 263 263 263 263 262 262 261 261 261 262 262 261 261 263 266 269 270 270 269 269 270 271 271 271 271 273 273 271 269 270 271 269 267 266 266 265 262 260 258 258 259 259 260 261 261 263 264 265 267 269 269 269 269 269 268 269 269 268 266 264 262 262 262 262 263 263 263 263 264 265 266 266 267 269 269
271 271 270 269 269 268 266 265 265 264 264 263 264 264 263 263 262 261 261 261 261 262 261 260 261 264 265 264 264 265 267 269 271 273 274 274 274 272 270 269 270 270 268 267 266 265 264 262 261 259 259 259 259 259 259 259 260 263 265 267 269 270 270 269 267 268 270 271 269 267 264 261 258 257 257 258 259 261 263 264 265 265 266 268 270 268
269 270 271 270 269 269 268 267 266 266 266 265 265 265 264 263 262 262 262 261 260 260 261 260 260 260 261 262 264 266 268 270 271 273 273 273 273 271 270 270 270 269 268 267 265 263 261 260 260 259 259 259 259 259 258 258 258 260 262 264 266 267 267 266 265 266 267 267 265 263 260 257 254 250 249 249 253 258 261 262 262 265 267 268 268 265
270 270 271 270 269 268 268 268 269 269 269 268 269 268 267 266 265 264 264 263 262 261 261 261 261 261 261 263 265 267 268 270 271 271 271 270 269 268 267 268 269 269 268 265 263 262 260 259 257 256 256 257 258 259 259 259 259 258 259 260 262 262 262 262 262 262 262 262 262 262 260 260 259 257 254 253 255 259 261 260 262 266 267 266 265 265
270 269 269 269 269 269 268 270 271 271 270 269 269 268 267 266 266 266 265 265 265 264 264 264 264 264 263 263 264 265 266 267 267 266 265 263 262 262 264 266 267 264 261 261 262 262 262 260 257 255 255 254 255 258 259 259 259 259 258 258 258 258 259 260 260 261 262 263 264 264 263 264 265 263 261 260 259 259 259 260 264 266 266 264 265 266
271 270 270 269 269 270 269 269 269 270 270 270 268 267 266 265 265 265 265 264 264 264 264 264 264 264 264 263 262 262 262 262 261 260 260 259 259 260 261 262 262 260 259 261 263 263 264 263 261 258 256 254 254 256 258 259 259 259 258 258 257 257 257 258 259 260 262 262 262 263 263 264 265 265 264 263 262 261 261 262 264 265 264 263 264 266
274 272 272 272 272 272 271 270 268 268 268 268 268 268 267 266 266 266 265 264 264 263 263 262 262 262 262 262 262 262 261 260 259 258 257 256 256 256 255 254 255 257 259 261 263 263 265 265 263 261 258 257 256 257 259 259 258 257 258 258 258 257 256 256 256 258 260 260 261 261 262 262 262 262 262 263 264 265 264 263 264 265 264 264 264 265
278 276 278 280 279 276 274 273 273 272 269 267 268 269 269 268 268 268 267 267 266 265 265 264 264 263 263 263 263 263 262 261 261 260 259 257 256 255 253 252 252 254 256 259 261 263 265 266 264 261 259 259 259 260 261 260 259 258 259 258 258 257 256 254 254 255 257 258 259 260 261 261 259 258 258 258 259 259 258 259 260 262 264 264 264 265
282 282 283 284 282 281 280 280 282 282 279 274 272 272 272 271 270 270 269 269 269 268 268 267 266 266 266 266 265 265 264 263 262 261 260 260 259 258 257 257 256 255 256 258 261 262 263 264 263 259 256 257 260 261 262 262 261 261 262 262 260 257 254 253 253 254 255 256 257 257 257 257 256 255 254 253 252 251 250 252 254 257 259 260 261 261
282 283 282 281 281 283 285 287 288 289 287 284 281 279 277 275 273 272 271 271 271 271 270 270 269 268 268 267 268 268 267 266 265 264 262 262 261 261 261 260 260 260 260 260 261 260 260 260 258 254 251 253 258 260 261 260 261 262 262 262 260 256 252 251 252 253 254 255 255 254 253 253 254 253 253 252 252 250 249 249 250 252 254 255 255 256
Height
5811 5807 5804 5810 5816 5817 5812 5807 5805 5805 5803 5800 5798 5796 5795 5794 5793 5798 5801 5802 5800 5790 5784 5787 5785 5782 5785 5790 5796 5798 5796 5796 5797 5796 5794 5794 5793 5792 5791 5790 5790 5788 5788 5788 5786 5786 5786 5786 5785 5784 5784 5784 5784 5784 5784 5785 5785 5784 5784 5783 5783 5782 5781 5781 5781 5780 5779 5779 5778 5778 5777 5777 5776 5776 5776 5776 5775 5775 5774 5774 5773 5772 5770 5770 5769 5769
5806 5800 5802 5811 5812 5808 5805 5803 5803 5801 5798 5796 5794 5792 5791 5791 5790 5793 5795 5796 5796 5784 5776 5779 5776 5774 5778 5782 5787 5791 5790 5791 5794 5792 5790 5790 5788 5787 5787 5786 5785 5784 5783 5783 5782 5782 5781 5781 5780 5779 5779 5779 5779 5779 5779 5780 5780 5779 5779 5779 5778 5777 5777 5776 5776 5775 5774 5774 5774 5773 5773 5772 5772 5771 5771 5771 5770 5770 5769 5768 5767 5766 5765 5765 5764 5764
5798 5795 5802 5808 5804 5800 5800 5800 5799 5796 5794 5791 5790 5788 5785 5787 5786 5786 5788 5790 5788 5778 5772 5772 5768 5766 5771 5774 5778 5784 5786 5786 5787 5787 5786 5786 5784 5783 5782 5781 5780 5779 5779 5778 5777 5777 5777 5776 5775 5774 5774 5774 5774 5774 5774 5775 5774 5774 5774 5774 5773 5772 5772 5771 5770 5770 5769 5769 5768 5768 5768 5767 5767 5767 5767 5766 5766 5765 5764 5763 5762 5761 5760 5759 5759 5759
5791 5792 5800 5801 5797 5796 5796 5796 5794 5792 5790 5787 5787 5784 5781 5784 5782 5778 5779 5782 5780 5774 5768 5767 5761 5758 5763 5767 5771 5778 5780 5780 5780 5780 5781 5782 5780 5778 5778 5777 5776 5775 5775 5774 5773 5773 5772 5772 5771 5770 5770 5769 5769 5769 5769 5769 5769 5769 5769 5768 5768 5767 5766 5766 5765 5765 5764 5764 5763 5763 5763 5763 5763 5762 5762 5761 5760 5759 5758 5757 5757 5755 5754 5754 5753 5753
5786 5789 5794 5793 5792 5792 5790 5790 5789 5787 5785 5783 5783 5781 5778 5780 5778 5773 5772 5772 5771 5769 5766 5764 5755 5750 5757 5761 5764 5772 5775 5774 5775 5775 5775 5777 5776 5774 5773 5773 5772 5771 5770 5770 5770 5769 5768 5767 5767 5766 5765 5764 5764 5764 5764 5763 5763 5763 5763 5763 5762 5762 5761 5760 5760 5759 5759 5758 5758 5758 5758 5758 5757 5757 5756 5756 5755 5753 5753 5752 5751 5750 5749 5748 5748 5748
5782 5788 5789 5787 5786 5786 5784 5783 5784 5783 5781 5779 5778 5778 5777 5775 5773 5770 5769 5766 5762 5761 5762 5761 5751 5743 5749 5755 5758 5766 5769 5768 5768 5769 5770 5773 5772 5769 5768 5769 5768 5766 5766 5765 5765 5764 5763 5763 5762 5761 5760 5759 5758 5759 5758 5758 5758 5758 5757 5757 5756 5756 5755 5755 5754 5754 5753 5753 5753 5753 5753 5752 5752 5751 5751 5750 5749 5748 5748 5747 5746 5745 5744 5743 5742 5742
5778 5785 5784 5781 5780 5779 5777 5777 5780 5781 5776 5772 5772 5775 5774 5771 5768 5766 5765 5762 5758 5756 5755 5754 5748 5740 5741 5748 5754 5759 5761 5760 5762 5764 5766 5768 5768 5765 5763 5763 5763 5762 5762 5761 5761 5760 5759 5758 5757 5756 5755 5754 5753 5753 5752 5752 5752 5752 5751 5751 5750 5750 5749 5749 5748 5748 5747 5747 5747 5747 5747 5746 5746 5745 5745 5744 5743 5743 5743 5742 5741 5739 5738 5737 5737 5736
5775 5779 5777 5776 5775 5772 5770 5772 5776 5776 5770 5766 5768 5769 5768 5767 5765 5763 5761 5758 5755 5752 5749 5745 5744 5740 5736 5740 5748 5749 5750 5751 5754 5759 5763 5763 5762 5761 5758 5758 5758 5758 5757 5757 5756 5756 5755 5754 5753 5752 5750 5749 5748 5747 5746 5746 5746 5745 5745 5745 5744 5744 5743 5742 5742 5741 5741 5741 5740 5740 5740 5740 5740 5739 5739 5738 5738 5738 5737 5736 5735 5734 5733 5732 5731 5731
5771 5771 5771 5770 5768 5767 5767 5769 5770 5767 5764 5763 5764 5762 5760 5761 5760 5759 5757 5754 5751 5749 5743 5739 5742 5743 5735 5734 5739 5737 5738 5744 5747 5752 5756 5758 5758 5757 5755 5754 5753 5753 5752 5751 5751 5751 5751 5750 5748 5747 5746 5744 5742 5742 5741 5741 5740 5739 5739 5739 5738 5738 5737 5736 5735 5734 5734 5734 5734 5734 5734 5734 5733 5733 5733 5733 5733 5732 5732 5731 5729 5728 5727 5726 5725 5725
5765 5765 5764 5762 5761 5763 5765 5764 5762 5761 5759 5759 5758 5756 5755 5755 5754 5753 5751 5749 5748 5743 5737 5736 5741 5744 5735 5730 5731 5728 5730 5736 5739 5743 5747 5750 5752 5752 5752 5750 5748 5748 5746 5745 5746 5746 5745 5744 5742 5741 5740 5738 5737 5736 5736 5735 5735 5734 5733 5732 5732 5731 5730 5729 5729 5728 5728 5727 5727 5728 5728 5728 5727 5727 5727 5727 5727 5726 5725 5724 5723 5722 5721 5720 5719 5719
5760 5759 5757 5756 5757 5758 5758 5757 5756 5755 5754 5754 5753 5751 5750 5748 5747 5746 5743 5744 5742 5736 5735 5738 5742 5743 5733 5723 5723 5723 5725 5729 5731 5735 5738 5741 5744 5745 5745 5745 5744 5742 5741 5741 5741 5740 5739 5737 5735 5735 5734 5732 5730 5729 5730 5730 5729 5728 5727 5726 5725 5725 5724 5724 5723 5722 5722 5721 5722 5722 5722 5722 5722 5721 5722 5721 5721 5720 5719 5718 5717 5716 5715 5714 5713 5713
5755 5752 5752 5752 5752 5751 5750 5750 5749 5749 5748 5748 5747 5745 5743 5742 5740 5738 5736 5737 5735 5730 5733 5738 5739 5739 5729 5719 5720 5721 5721 5723 5724 5726 5727 5731 5736 5736 5736 5737 5738 5739 5738 5738 5736 5735 5733 5730 5728 5726 5726 5725 5724 5723 5724 5724 5722 5721 5721 5720 5719 5719 5718 5717 5717 5716 5716 5716 5716 5717 5717 5716 5716 5716 5716 5715 5715 5714 5714 5712 5711 5710 5709 5708 5707 5707
5747 5747 5747 5746 5746 5746 5744 5743 5743 5742 5742 5741 5740 5738 5736 5734 5732 5729 5728 5729 5728 5729 5731 5733 5732 5728 5719 5716 5719 5721 5721 5720 5720 5719 5720 5723 5726 5727 5728 5728 5731 5734 5734 5734 5732 5730 5727 5725 5722 5719 5717 5717 5717 5715 5715 5715 5715 5713 5713 5714 5713 5713 5712 5711 5711 5710 5710 5710 5711 5711 5711 5710 5710 5710 5710 5709 5708 5708 5707 5706 5705 5704 5703 5703 5702 5701
5739 5741 5742 5739 5740 5741 5738 5736 5736 5735 5735 5733 5733 5732 5729 5727 5723 5719 5722 5722 5722 5726 5727 5726 5723 5715 5711 5713 5716 5718 5720 5719 5717 5716 5715 5716 5716 5717 5718 5719 5722 5727 5729 5728 5727 5725 5722 5719 5717 5715 5712 5711 5711 5709 5708 5707 5707 5706 5705 5704 5705 5705 5705 5705 5705 5705 5705 5705 5705 5705 5704 5704 5704 5704 5704 5703 5703 5702 5701 5700 5700 5699 5698 5697 5696 5695
5730 5734 5739 5734 5731 5734 5731 5729 5728 5727 5727 5726 5726 5724 5721 5721 5717 5713 5717 5718 5715 5717 5718 5716 5712 5707 5707 5710 5711 5711 5712 5712 5713 5713 5713 5712 5710 5707 5708 5710 5711 5715 5720 5722 5721 5720 5718 5715 5713 5712 5709 5707 5706 5705 5703 5701 5700 5700 5699 5697 5696 5697 5697 5698 5698 5699 5700 5700 5699 5699 5698 5698 5699 5699 5698 5698 5697 5696 5695 5694 5694 5693 5692 5691 5690 5689
5719 5725 5735 5728 5723 5727 5725 5723 5722 5719 5718 5720 5719 5715 5713 5716 5714 5709 5710 5711 5709 5706 5706 5704 5700 5701 5705 5705 5707 5706 5703 5703 5705 5706 5707 5707 5706 5702 5701 5705 5704 5703 5707 5713 5715 5714 5713 5711 5709 5707 5705 5704 5702 5701 5700 5697 5695 5694 5694 5692 5691 5690 5690 5691 5691 5692 5693 5693 5692 5692 5692 5692 5693 5693 5692 5691 5691 5690 5689 5688 5687 5686 5686 5685 5684 5683
5708 5714 5725 5722 5717 5721 5718 5716 5716 5711 5710 5711 5710 5708 5709 5710 5708 5702 5698 5701 5702 5694 5694 5697 5691 5694 5700 5697 5699 5702 5700 5701 5700 5699 5698 5698 5699 5697 5696 5699 5699 5697 5696 5700 5705 5707 5706 5705 5704 5703 5701 5699 5697 5696 5695 5693 5690 5687 5687 5686 5686 5686 5685 5685 5685 5686 5686 5686 5686 5686 5686 5686 5685 5685 5685 5684 5684 5683 5683 5682 5681 5680 5679 5678 5678 5677
5698 5698 5710 5715 5710 5712 5712 5709 5708 5706 5703 5701 5701 5704 5705 5700 5698 5695 5688 5689 5691 5683 5684 5691 5686 5686 5691 5689 5691 5695 5696 5696 5695 5693 5690 5689 5691 5691 5691 5691 5691 5692 5691 5689 5692 5695 5696 5696 5696 5696 5695 5693 5691 5690 5688 5686 5684 5682 5681 5680 5679 5679 5680 5679 5679 5679 5679 5680 5680 5679 5679 5678 5677 5677 5677 5676 5676 5675 5675 5675 5674 5673 5672 5671 5670 5669
5690 5684 5691 5702 5701 5699 5701 5701 5698 5698 5697 5693 5694 5697 5695 5690 5688 5687 5680 5677 5678 5672 5671 5680 5681 5679 5682 5684 5687 5688 5689 5688 5687 5685 5682 5681 5683 5683 5683 5681 5680 5683 5685 5683 5681 5682 5684 5686 5686 5686 5686 5685 5684 5682 5681 5679 5678 5677 5676 5675 5674 5673 5673 5673 5673 5672 5672 5672 5672 5671 5672 5671 5670 5669 5669 5669 5668 5667 5667 5667 5666 5666 5664 5663 5663 5662
5682 5674 5674 5686 5690 5686 5687 5690 5689 5689 5689 5686 5685 5684 5683 5682 5679 5676 5672 5669 5668 5663 5659 5664 5668 5670 5677 5683 5684 5683 5681 5680 5679 5677 5675 5675 5676 5676 5676 5672 5670 5674 5675 5674 5672 5670 5671 5674 5676 5677 5676 5675 5674 5672 5671 5670 5671 5671 5669 5669 5668 5666 5666 5666 5665 5665 5665 5665 5664 5664 5664 5663 5662 5662 5662 5661 5660 5660 5659 5659 5659 5658 5657 5656 5655 5654
5673 5668 5664 5671 5677 5675 5676 5679 5679 5678 5678 5675 5673 5672 5672 5673 5671 5665 5660 5661 5660 5654 5650 5649 5647 5657 5675 5681 5677 5677 5674 5670 5669 5668 5669 5670 5669 5670 5670 5665 5663 5664 5663 5663 5663 5662 5661 5661 5662 5665 5665 5664 5663 5662 5661 5662 5662 5663 5662 5661 5660 5659 5659 5658 5656 5657 5658 5658 5657 5656 5656 5655 5655 5654 5654 5653 5653 5652 5651 5651 5651 5650 5649 5648 5647 5646
5664 5661 5658 5660 5664 5666 5669 5671 5668 5666 5666 5664 5662 5662 5663 5663 5662 5655 5648 5650 5652 5644 5641 5639 5629 5638 5668 5677 5669 5668 5667 5663 5662 5661 5660 5661 5661 5662 5663 5659 5656 5655 5651 5651 5654 5654 5653 5652 5652 5652 5652 5651 5652 5652 5653 5653 5653 5654 5653 5652 5651 5651 5651 5650 5648 5648 5650 5650 5650 5650 5649 5648 5647 5646 5646 5646 5645 5644 5643 5643 5642 5641 5641 5640 5639 5638
5656 5652 5648 5649 5652 5657 5661 5662 5659 5656 5656 5653 5650 5652 5655 5654 5653 5647 5639 5641 5643 5634 5632 5631 5615 5617 5650 5670 5666 5661 5658 5655 5654 5653 5651 5652 5653 5653 5653 5651 5648 5645 5642 5642 5645 5646 5645 5644 5644 5642 5640 5640 5641 5643 5644 5643 5644 5644 5643 5642 5642 5643 5644 5642 5640 5640 5642 5643 5642 5642 5641 5640 5640 5639 5639 5638 5637 5637 5636 5635 5634 5633 5632 5632 5631 5631
5649 5644 5640 5639 5640 5644 5649 5651 5650 5649 5647 5643 5641 5646 5648 5645 5644 5640 5633 5633 5630 5622 5622 5620 5604 5606 5634 5656 5657 5654 5651 5646 5645 5645 5644 5643 5644 5644 5643 5642 5638 5634 5634 5636 5636 5636 5634 5633 5633 5632 5631 5630 5631 5633 5633 5633 5634 5633 5633 5633 5634 5636 5637 5634 5632 5633 5635 5636 5635 5634 5633 5632 5632 5632 5631 5630 5629 5629 5628 5626 5626 5625 5624 5624 5623 5623
5638 5634 5632 5631 5628 5629 5633 5636 5638 5641 5640 5634 5633 5638 5638 5636 5636 5630 5626 5624 5615 5612 5617 5608 5593 5603 5628 5639 5641 5643 5643 5641 5641 5640 5637 5634 5634 5634 5633 5630 5628 5626 5627 5629 5628 5625 5623 5622 5621 5621 5621 5622 5623 5623 5623 5622 5622 5622 5624 5625 5625 5626 5627 5625 5624 5625 5626 5627 5626 5625 5625 5625 5624 5623 5622 5622 5621 5621 5619 5618 5618 5617 5616 5616 5615 5614
5626 5624 5623 5620 5616 5615 5618 5623 5628 5631 5629 5623 5622 5626 5628 5628 5626 5620 5617 5612 5602 5603 5608 5597 5587 5600 5620 5626 5627 5632 5634 5634 5634 5635 5631 5626 5623 5623 5621 5620 5620 5621 5621 5621 5619 5614 5612 5613 5613 5612 5612 5613 5614 5613 5613 5612 5612 5613 5615 5616 5617 5617 5616 5615 5615 5616 5617 5617 5617 5617 5617 5617 5616 5615 5614 5613 5613 5611 5611 5610 5610 5609 5608 5608 5607 5606
5613 5611 5612 5610 5606 5605 5608 5614 5619 5619 5613 5609 5611 5614 5617 5617 5615 5612 5606 5598 5596 5596 5590 5586 5589 5593 5602 5613 5619 5623 5625 5624 5625 5626 5622 5618 5616 5614 5613 5612 5613 5614 5614 5612 5608 5605 5604 5604 5604 5604 5603 5603 5602 5601 5601 5601 5602 5604 5605 5607 5607 5607 5606 5606 5605 5605 5606 5607 5607 5608 5608 5608 5607 5606 5605 5604 5603 5602 5602 5602 5601 5601 5600 5599 5598 5597
5601 5596 5601 5600 5595 5597 5600 5603 5609 5607 5598 5596 5599 5601 5605 5606 5604 5601 5593 5588 5593 5586 5571 5578 5589 5582 5582 5598 5606 5609 5613 5614 5615 5614 5609 5608 5609 5609 5608 5606 5605 5604 5603 5600 5597 5596 5596 5595 5595 5594 5593 5593 5592 5590 5589 5590 5592 5594 5595 5596 5597 5596 5596 5596 5595 5595 5596 5596 5597 5598 5598 5597 5597 5597 5596 5594 5593 5593 5593 5593 5592 5591 5590 5590 5589 5589
5590 5583 5589 5590 5584 5588 5591 5592 5596 5595 5589 5587 5587 5587 5592 5595 5592 5589 5583 5583 5586 5574 5562 5573 5581 5570 5572 5584 5589 5593 5599 5599 5597 5596 5594 5595 5599 5602 5602 5599 5596 5593 5589 5586 5586 5587 5586 5585 5586 5585 5584 5583 5583 5582 5581 5581 5582 5583 5584 5586 5587 5587 5587 5586 5585 5586 5586 5586 5588 5589 5588 5587 5587 5586 5585 5584 5584 5584 5584 5583 5582 5582 5581 5580 5580 5579
5581 5573 5579 5580 5573 5575 5579 5580 5583 5582 5578 5577 5576 5578 5581 5582 5581 5578 5574 5575 5574 5563 5560 5567 5565 5559 5565 5573 5575 5579 5583 5580 5578 5579 5579 5581 5585 5590 5591 5588 5583 5579 5574 5572 5574 5576 5575 5575 5576 5576 5575 5574 5574 5575 5575 5574 5574 5574 5575 5577 5577 5577 5577 5575 5575 5576 5576 5577 5578 5578 5577 5577 5577 5576 5576 5576 5576 5575 5574 5574 5573 5572 5571 5570 5569 5569
5573 5566 5571 5572 5562 5559 5567 5571 5569 5568 5566 5565 5567 5570 5571 5569 5568 5568 5565 5566 5564 5555 5555 5558 5549 5546 5557 5564 5564 5565 5565 5564 5564 5565 5566 5568 5571 5573 5572 5568 5564 5561 5560 5562 5565 5566 5568 5568 5567 5566 5566 5564 5564 5566 5565 5565 5564 5564 5565 5567 5567 5566 5565 5565 5565 5567 5567 5567 5568 5567 5567 5568 5567 5567 5567 5567 5566 5566 5565 5564 5564 5563 5562 5561 5560 5559
5565 5559 5561 5562 5549 5546 5556 5559 5556 5558 5555 5551 5554 5560 5562 5560 5557 5556 5557 5557 5554 5548 5546 5545 5537 5535 5547 5554 5551 5550 5552 5552 5552 5553 5554 5555 5556 5554 5550 5548 5548 5548 5551 5554 5556 5556 5557 5557 5557 5556 5554 5553 5554 5554 5555 5554 5553 5553 5555 5556 5556 5556 5556 5556 5557 5557 5558 5558 5558 5557 5557 5558 5558 5558 5558 5558 5557 5557 5556 5555 5554 5554 5553 5552 5551 5550
5558 5552 5551 5550 5539 5535 5545 5547 5545 5547 5538 5532 5542 5554 5555 5552 5548 5545 5546 5546 5546 5543 5536 5530 5528 5529 5536 5538 5535 5535 5538 5540 5542 5543 5540 5538 5539 5538 5536 5536 5538 5539 5539 5540 5541 5541 5541 5542 5543 5543 5542 5542 5542 5542 5543 5541 5540 5542 5544 5543 5543 5545 5546 5547 5548 5548 5548 5548 5547 5547 5548 5548 5548 5548 5548 5548 5548 5547 5546 5546 5546 5545 5544 5542 5541 5540
5549 5544 5541 5540 5532 5527 5535 5539 5535 5530 5520 5519 5535 5546 5543 5541 5539 5535 5533 5535 5538 5534 5525 5519 5518 5518 5520 5521 5521 5522 5524 5530 5533 5530 5523 5522 5525 5527 5527 5527 5527 5527 5527 5528 5528 5528 5527 5527 5529 5530 5531 5531 5530 5530 5530 5529 5528 5529 5530 5530 5531 5533 5535 5537 5537 5537 5537 5537 5536 5536 5536 5536 5537 5537 5537 5537 5537 5537 5537 5537 5536 5534 5533 5531 5530 5529
5537 5536 5533 5531 5525 5520 5526 5531 5521 5512 5512 5518 5528 5533 5530 5530 5530 5524 5523 5528 5526 5516 5511 5510 5506 5502 5505 5508 5509 5509 5513 5521 5525 5517 5511 5511 5512 5513 5515 5516 5516 5515 5515 5516 5516 5516 5516 5515 5516 5517 5517 5518 5517 5516 5516 5516 5515 5515 5516 5518 5520 5521 5523 5525 5526 5526 5526 5525 5524 5524 5524 5525 5526 5526 5526 5526 5526 5527 5526 5526 5525 5523 5522 5521 5520 5519
5524 5524 5521 5519 5517 5513 5515 5517 5506 5500 5509 5516 5518 5520 5519 5518 5518 5515 5515 5516 5509 5499 5498 5498 5492 5491 5494 5495 5496 5497 5501 5510 5512 5505 5501 5502 5499 5499 5502 5504 5505 5504 5504 5504 5504 5504 5505 5504 5504 5504 5504 5504 5504 5503 5502 5502 5502 5502 5503 5506 5507 5509 5511 5512 5513 5515 5515 5514 5514 5513 5513 5514 5514 5515 5516 5516 5516 5516 5516 5515 5514 5513 5512 5511 5510 5509
5512 5510 5509 5507 5507 5506 5504 5501 5496 5496 5500 5503 5506 5509 5506 5505 5508 5509 5506 5500 5491 5487 5489 5486 5481 5483 5484 5482 5482 5485 5490 5497 5499 5494 5491 5491 5489 5489 5491 5492 5493 5493 5492 5492 5493 5494 5494 5493 5493 5493 5493 5493 5492 5490 5490 5491 5491 5491 5492 5494 5496 5498 5499 5500 5502 5503 5503 5503 5503 5503 5502 5503 5503 5504 5505 5505 5505 5505 5505 5504 5504 5503 5502 5500 5500 5499
5502 5499 5498 5495 5494 5497 5495 5489 5488 5489 5487 5488 5495 5498 5495 5496 5499 5501 5497 5487 5478 5475 5477 5474 5472 5473 5472 5470 5470 5472 5477 5483 5485 5484 5482 5480 5479 5480 5481 5481 5482 5482 5481 5481 5482 5484 5484 5483 5482 5482 5481 5482 5481 5480 5480 5480 5480 5481 5481 5483 5485 5486 5487 5489 5490 5491 5491 5491 5492 5491 5491 5492 5493 5493 5494 5494 5495 5495 5495 5494 5494 5493 5492 5490 5490 5489
5491 5489 5489 5485 5482 5486 5486 5480 5479 5479 5475 5476 5483 5486 5486 5487 5488 5489 5485 5476 5469 5466 5464 5464 5463 5461 5460 5460 5459 5461 5464 5466 5469 5472 5472 5470 5469 5470 5470 5471 5472 5472 5472 5471 5471 5473 5473 5472 5472 5471 5471 5471 5471 5471 5471 5470 5470 5471 5471 5473 5475 5476 5477 5478 5478 5478 5479 5480 5480 5480 5481 5482 5482 5483 5483 5484 5485 5484 5484 5484 5484 5483 5482 5480 5480 5479
5479 5478 5478 5474 5471 5475 5475 5468 5467 5468 5465 5465 5470 5474 5475 5475 5477 5476 5469 5461 5460 5459 5455 5454 5454 5452 5451 5450 5449 5450 5450 5450 5453 5459 5460 5458 5459 5459 5459 5460 5461 5461 5462 5462 5461 5461 5462 5462 5461 5461 5461 5461 5461 5462 5461 5460 5460 5461 5461 5463 5465 5466 5466 5466 5466 5467 5468 5468 5469 5469 5471 5472 5472 5472 5473 5474 5474 5474 5473 5474 5473 5472 5471 5471 5470 5470
5465 5465 5464 5461 5460 5462 5460 5455 5454 5456 5455 5454 5457 5460 5462 5464 5466 5461 5451 5446 5450 5451 5447 5445 5443 5442 5442 5441 5440 5440 5438 5435 5438 5444 5446 5446 5447 5448 5448 5449 5450 5450 5451 5452 5451 5451 5452 5452 5452 5451 5452 5452 5452 5452 5452 5451 5451 5452 5453 5454 5455 5455 5456 5455 5455 5457 5457 5458 5459 5459 5460 5461 5461 5461 5462 5462 5463 5463 5462 5462 5462 5462 5462 5461 5461 5462
5449 5448 5448 5448 5448 5448 5446 5442 5441 5441 5442 5443 5445 5446 5449 5451 5449 5444 5436 5435 5437 5438 5437 5436 5433 5431 5431 5431 5430 5429 5427 5425 5425 5428 5431 5432 5433 5436 5438 5438 5439 5440 5440 5441 5441 5440 5441 5442 5443 5442 5442 5443 5443 5443 5443 5442 5442 5443 5444 5444 5444 5445 5446 5445 5445 5446 5448 5448 5449 5449 5449 5450 5449 5449 5450 5451 5451 5451 5451 5452 5452 5453 5452 5452 5453 5454
5436 5432 5432 5435 5435 5432 5431 5429 5427 5426 5429 5433 5433 5434 5435 5434 5429 5426 5425 5425 5424 5423 5423 5424 5422 5420 5419 5419 5418 5416 5414 5415 5414 5414 5416 5418 5419 5422 5425 5426 5428 5429 5429 5429 5429 5429 5429 5430 5432 5432 5432 5432 5432 5432 5433 5433 5433 5434 5435 5435 5435 5434 5435 5434 5434 5435 5438 5438 5439 5438 5437 5437 5437 5437 5438 5439 5439 5439 5440 5441 5442 5442 5442 5442 5443 5444
5426 5423 5420 5421 5421 5417 5414 5414 5414 5414 5418 5421 5421 5420 5421 5418 5414 5412 5411 5412 5413 5411 5409 5407 5407 5408 5406 5405 5405 5402 5401 5401 5402 5402 5404 5406 5408 5409 5410 5412 5414 5416 5417 5417 5416 5416 5417 5418 5420 5421 5421 5421 5421 5420 5421 5422 5423 5425 5426 5425 5426 5426 5425 5424 5424 5425 5426 5427 5428 5429 5429 5428 5428 5428 5428 5428 5428 5428 5429 5430 5431 5431 5432 5432 5433 5433
5416 5416 5411 5406 5406 5405 5401 5401 5405 5406 5408 5410 5410 5407 5404 5402 5402 5400 5396 5397 5400 5399 5395 5391 5392 5394 5394 5392 5391 5390 5389 5389 5389 5389 5391 5393 5395 5397 5397 5398 5400 5402 5403 5404 5403 5402 5403 5405 5407 5409 5410 5411 5410 5408 5409 5410 5411 5414 5415 5415 5416 5417 5417 5416 5415 5415 5416 5416 5418 5419 5421 5421 5420 5420 5420 5419 5418 5418 5418 5419 5420 5421 5421 5422 5423 5423
5406 5407 5402 5394 5393 5393 5392 5395 5398 5396 5395 5399 5400 5396 5391 5387 5387 5387 5384 5383 5384 5383 5381 5379 5378 5379 5381 5378 5377 5377 5377 5377 5377 5378 5379 5380 5382 5384 5384 5385 5387 5389 5390 5391 5391 5390 5390 5391 5393 5395 5397 5399 5399 5396 5397 5398 5399 5402 5404 5404 5404 5405 5406 5406 5406 5406 5406 5406 5407 5407 5408 5409 5409 5409 5410 5409 5408 5408 5408 5409 5410 5411 5411 5412 5413 5413
5398 5396 5389 5385 5384 5382 5382 5389 5391 5384 5382 5387 5387 5384 5380 5375 5373 5374 5372 5370 5369 5369 5368 5367 5365 5365 5366 5364 5363 5362 5363 5365 5366 5366 5367 5368 5368 5371 5371 5371 5373 5376 5377 5377 5378 5378 5378 5379 5380 5381 5383 5386 5387 5384 5384 5386 5387 5389 5391 5392 5392 5392 5393 5394 5395 5395 5395 5395 5395 5396 5396 5397 5397 5397 5398 5398 5398 5398 5399 5400 5400 5400 5401 5402 5402 5402
5388 5384 5377 5376 5376 5372 5371 5378 5380 5375 5374 5375 5373 5370 5369 5365 5362 5362 5360 5357 5356 5355 5354 5354 5352 5351 5351 5350 5349 5348 5349 5351 5352 5351 5353 5355 5355 5355 5356 5356 5357 5360 5362 5363 5363 5363 5364 5366 5367 5368 5368 5371 5373 5372 5371 5374 5376 5376 5376 5378 5378 5378 5379 5380 5381 5381 5382 5382 5383 5384 5384 5385 5386 5386 5386 5386 5387 5387 5388 5389 5389 5389 5390 5390 5390 5391
5375 5371 5369 5368 5365 5361 5363 5367 5368 5363 5362 5365 5364 5360 5357 5354 5351 5350 5348 5346 5344 5341 5340 5340 5340 5338 5337 5335 5334 5333 5333 5336 5337 5336 5336 5339 5341 5341 5341 5341 5341 5342 5345 5348 5348 5348 5349 5351 5352 5352 5353 5356 5358 5358 5358 5361 5363 5362 5362 5363 5364 5364 5364 5366 5366 5367 5368 5370 5371 5372 5373 5373 5373 5374 5374 5375 5375 5375 5376 5377 5378 5378 5378 5379 5379 5380
5363 5361 5363 5359 5351 5351 5355 5358 5356 5351 5349 5352 5354 5350 5346 5344 5342 5340 5338 5336 5333 5330 5328 5327 5327 5326 5324 5322 5319 5317 5317 5319 5321 5320 5319 5321 5324 5325 5325 5326 5326 5326 5328 5330 5332 5333 5335 5335 5334 5335 5337 5341 5343 5343 5344 5347 5348 5348 5348 5349 5350 5350 5350 5351 5352 5353 5355 5357 5358 5359 5360 5360 5360 5362 5362 5362 5362 5363 5364 5365 5366 5366 5367 5367 5368 5368
5356 5355 5355 5350 5344 5343 5346 5347 5346 5341 5337 5339 5341 5339 5335 5333 5331 5330 5329 5326 5322 5320 5318 5316 5314 5313 5312 5310 5308 5305 5302 5302 5304 5303 5303 5304 5306 5306 5308 5309 5309 5309 5311 5313 5314 5316 5318 5318 5317 5316 5319 5325 5329 5329 5330 5332 5334 5335 5336 5336 5336 5336 5336 5336 5337 5339 5341 5343 5344 5346 5347 5347 5348 5349 5350 5350 5350 5351 5352 5353 5354 5354 5355 5356 5356 5356